This is the latest recevied weather packets stored in our database for station/object K5DLF-13. If no packets are shown the sender has not sent any weather packets the latest 10 day(s).
| Time | Temp. | Humidity | Pressure | Rain* | Wind** | Luminosity | Snow |
|---|---|---|---|---|---|---|---|
| 1777496370 | 29.44° C | 74% | 1008 hPa | 0 mm | - | 330 W/m² | - |
| 1777496070 | 30° C | 75% | 1008.1 hPa | 0 mm | - | 359 W/m² | - |
| 1777495770 | 30° C | 74% | 1008.2 hPa | 0 mm | - | 253 W/m² | - |
| 1777495470 | 30° C | 75% | 1008.2 hPa | 0 mm | - | 696 W/m² | - |
| 1777495170 | 30° C | 76% | 1008.1 hPa | 0 mm | - | 661 W/m² | - |
| 1777494870 | 30° C | 76% | 1008.2 hPa | 0 mm | - | 800 W/m² | - |
| 1777494570 | 29.44° C | 77% | 1008.2 hPa | 0 mm | - | 610 W/m² | - |
| 1777494270 | 30° C | 77% | 1008.2 hPa | 0 mm | - | 271 W/m² | - |
| 1777493970 | 30° C | 76% | 1008.5 hPa | 0 mm | - | 336 W/m² | - |
| 1777493670 | 29.44° C | 77% | 1008.4 hPa | 0 mm | - | 348 W/m² | - |
| 1777493370 | 29.44° C | 78% | 1008.5 hPa | 0 mm | - | 889 W/m² | - |
| 1777493070 | 29.44° C | 78% | 1008.6 hPa | 0 mm | - | 406 W/m² | - |
| 1777492770 | 29.44° C | 76% | 1008.6 hPa | 0 mm | - | 262 W/m² | - |
| 1777492470 | 29.44° C | 76% | 1008.8 hPa | 0 mm | - | 352 W/m² | - |
| 1777492170 | 29.44° C | 76% | 1008.5 hPa | 0 mm | - | 244 W/m² | - |
| 1777491870 | 29.44° C | 77% | 1008.4 hPa | 0 mm | - | 645 W/m² | - |
| 1777491570 | 29.44° C | 76% | 1008.2 hPa | 0 mm | - | 645 W/m² | - |
| 1777491270 | 30° C | 76% | 1008.6 hPa | 0 mm | - | 468 W/m² | - |
| 1777490970 | 30° C | 76% | 1009 hPa | 0 mm | - | 468 W/m² | - |
| 1777490670 | 30° C | 76% | 1009 hPa | 0 mm | - | 425 W/m² | - |
| 1777490370 | 30° C | 77% | 1009.1 hPa | 0 mm | - | 378 W/m² | - |
| 1777490070 | 29.44° C | 80% | 1009.3 hPa | 0 mm | - | 541 W/m² | - |
| 1777489770 | 29.44° C | 80% | 1009.2 hPa | 0 mm | - | 775 W/m² | - |
| 1777489470 | 28.89° C | 78% | 1009.2 hPa | 0 mm | - | 381 W/m² | - |
| 1777489170 | 28.89° C | 78% | 1009.3 hPa | 0 mm | - | 330 W/m² | - |
* Rain latest hour (hover to see other rain measurements)
** Current wind speed in m/s (hover to see current wind gust speed)